Regional Weather Roundup
Issued by NWS

Home | Current Version | Previous Version | Text Only | Print | Product List | Glossary Off
Versions: 1 2 3 4 5 6 7 8 9 10 11 12 13 14 15 16 17 18 19 20 21 22 23 24 25 26 27 28 29 30 31 32 33 34 35 36 37 38 39 40 41 42 43 44 45 46 47 48 49 50

000
ASUS45 KCYS 220310
RWRWY

WYOMING REGIONAL WEATHER ROUNDUP
NATIONAL WEATHER SERVICE CHEYENNE WY
900 PM MDT SUN SEP 21 2014

NOTE:  "FAIR" INDICATES FEW OR NO CLOUDS BELOW 12,000 FEET
WITH NO SIGNIFICANT WEATHER AND/OR OBSTRUCTIONS TO VISIBILITY.

WYZ001-220400-
YELLOWSTONE NATIONAL PARK

CITY           SKY/WX    TMP DP  RH WIND       PRES   REMARKS
LK YELLOWSTONE   N/A     52  45  77 CALM      30.34R
W YELLOWSTONE  NOT AVBL

$$
WYZ002>013-054>058-071-098>099-220400-
NORTHERN WYOMING

CITY           SKY/WX    TMP DP  RH WIND       PRES   REMARKS
JACKSON        CLOUDY    61  46  59 SW13      30.24
CODY             N/A    N/A N/A N/A MISG        N/A
GREYBULL       CLOUDY    67  47  48 CALM      30.10S
WORLAND        CLOUDY    70  41  34 SE12      30.11F
SHERIDAN       MOCLDY    65  43  44 SE10      30.13F
BUFFALO        MOCLDY    63  43  48 S12       30.23S
GILLETTE       MOCLDY    62  41  46 SE13      30.22S
HULETT         FAIR      55  39  54 MISG      30.25
NEWCASTLE      FAIR      63  32  31 E13G18    30.27

$$
WYZ014>020-022>026-101>103-220400-
CENTRAL WYOMING

CITY           SKY/WX    TMP DP  RH WIND       PRES   REMARKS
BIG PINEY      LGT RAIN  53  51  93 CALM      30.32R
PINEDALE       RAIN      52  50  93 CALM      30.33R
DUBOIS         MOCLDY    55  37  50 NW3       30.30R
LANDER         CLOUDY    66  41  40 W9        30.20R
RIVERTON       CLOUDY    65  38  36 NW8       30.20R
CASPER         MOCLDY    63  41  44 E10       30.22S
DOUGLAS        MOCLDY    60  41  49 SE9       30.27S

$$
WYZ021-027>030-104>119-220400-
SOUTHERN WYOMING

CITY           SKY/WX    TMP DP  RH WIND       PRES   REMARKS
EVANSTON       CLOUDY    51  48  89 E6        30.30R
KEMMERER       CLOUDY    52  50  93 E3        30.31S
FORT BRIDGER     N/A     51  51  97 CALM      30.33R
ROCK SPRINGS   CLOUDY    52  51  97 E7        30.29F
DIXON          MOCLDY    58  51  77 CALM      30.37S
RAWLINS        CLOUDY    61  45  55 SE12      30.31R
SARATOGA       FAIR      59  45  58 SE12      30.33S
LARAMIE        CLOUDY    54  48  80 S7        30.37S
CHEYENNE       CLOUDY    60  41  49 SE10      30.35R
TORRINGTON     MOCLDY    61  41  47 E10       30.26S
PINE BLUFFS    FAIR      61  39  44 SE8       30.33S

$$



USA.gov is the U.S. government's official web portal to all federal, state and local government web resources and services.